TimeCDT,TemperatureF,Dew PointF,Humidity,Sea Level PressureIn,VisibilityMPH,Wind Direction,Wind SpeedMPH,Gust SpeedMPH,PrecipitationIn,Events,Conditions,WindDirDegrees,DateUTC
12:00 AM,26.6,23.0,86,30.22,15.0,ENE,10.4,-,N/A,,Overcast,60,2012-11-02 05:00:00
12:45 AM,26.6,-9999,N/A,-9999,15.0,East,5.8,-,N/A,,Overcast,90,2012-11-02 05:45:00
1:00 AM,27,22,75,30.24,9,Calm,Calm,,,,Overcast,,2012-11-02 06:00:00
1:00 AM,26.6,23.0,86,30.24,15.0,ENE,9.2,-,N/A,,Overcast,70,2012-11-02 06:00:00
2:00 AM,26.6,23.0,86,30.23,15.0,East,5.8,-,N/A,,Overcast,90,2012-11-02 07:00:00
3:00 AM,26.6,21.2,80,30.24,15.0,East,8.1,-,N/A,,Overcast,80,2012-11-02 08:00:00
4:00 AM,26.6,10.4,51,30.25,15.0,East,8.1,-,N/A,,Overcast,100,2012-11-02 09:00:00
5:00 AM,26.6,23.0,86,30.24,15.0,East,6.9,-,N/A,,Overcast,100,2012-11-02 10:00:00
6:00 AM,26.6,23.0,86,30.24,15.0,NE,10.4,-,N/A,,Overcast,50,2012-11-02 11:00:00
7:00 AM,27,23,80,30.24,9,Calm,Calm,,,,Overcast,,2012-11-02 12:00:00
7:00 AM,26.6,23.0,86,30.24,15.0,ENE,5.8,-,N/A,,Overcast,70,2012-11-02 12:00:00
8:00 AM,26.6,23.0,86,30.25,15.0,East,9.2,-,N/A,,Overcast,80,2012-11-02 13:00:00
9:00 AM,26.6,21.2,80,30.26,15.0,East,6.9,-,N/A,,Overcast,80,2012-11-02 14:00:00
10:00 AM,26.6,21.2,80,30.26,15.0,East,10.4,-,N/A,,Overcast,90,2012-11-02 15:00:00
11:00 AM,26.6,21.2,80,30.27,15.0,ESE,10.4,-,N/A,,Overcast,110,2012-11-02 16:00:00
12:00 PM,26.6,19.4,74,30.26,15.0,ESE,6.9,-,N/A,,Overcast,120,2012-11-02 17:00:00
1:00 PM,28,21,66,30.26,9,Calm,Calm,,,,Overcast,,2012-11-02 18:00:00
1:00 PM,28.4,21.2,74,30.26,15.0,East,3.5,-,N/A,,Overcast,100,2012-11-02 18:00:00
2:00 PM,28.4,21.2,74,30.25,15.0,East,5.8,-,N/A,,Overcast,100,2012-11-02 19:00:00
3:00 PM,28.4,21.2,74,30.25,15.0,NE,3.5,-,N/A,,Overcast,50,2012-11-02 20:00:00
4:00 PM,28.4,21.2,74,30.25,15.0,ENE,2.3,-,N/A,,Mostly Cloudy,60,2012-11-02 21:00:00
5:00 PM,30.2,21.2,69,30.24,15.0,NE,3.5,-,N/A,,Mostly Cloudy,50,2012-11-02 22:00:00
6:00 PM,26.6,21.2,80,30.24,15.0,NE,6.9,-,N/A,,Mostly Cloudy,50,2012-11-02 23:00:00
7:00 PM,29,22,66,30.24,9,Calm,Calm,,,,,,2012-11-03 00:00:00
7:00 PM,28.4,21.2,74,30.24,15.0,NE,5.8,-,N/A,,Overcast,50,2012-11-03 00:00:00
8:00 PM,28.4,21.2,74,30.25,15.0,NE,3.5,-,N/A,,Overcast,50,2012-11-03 01:00:00
9:00 PM,28.4,23.0,80,30.23,15.0,NE,6.9,-,N/A,,Overcast,40,2012-11-03 02:00:00
10:00 PM,26.6,23.0,86,30.25,15.0,ENE,5.8,-,N/A,,Overcast,60,2012-11-03 03:00:00
11:00 PM,30.2,23.0,75,30.25,15.0,East,4.6,-,N/A,,Overcast,80,2012-11-03 04:00:00